GFSNIL_prec_precacc6_276.txt.gz
Total_Precipitation_Accumulation
0.01 0.03 0.15 0.14 0.15 0.10 0.05 0.00 0.07 0.11 0.03 0.02 0.05 0.08 0.10 0.14 0.06 0.16 0.12 0.09 0.17 0.27
0.02 0.02 0.07 0.21 0.19 0.13 0.17 0.04 0.02 0.01 0.02 0.03 0.06 0.10 0.18 0.19 0.12 0.16 0.18 0.17 0.24 0.28
0.00 0.01 0.07 0.19 0.09 0.08 0.02 0.05 0.11 0.14 0.09 0.08 0.08 0.09 0.18 0.14 0.22 0.26 0.20 0.15 0.08 0.16
0.00 0.00 0.02 0.05 0.05 0.04 0.03 0.05 0.09 0.08 0.09 0.08 0.05 0.06 0.06 0.03 0.20 0.24 0.21 0.22 0.21 0.35
0.00 0.00 0.00 0.01 0.00 0.00 0.01 0.02 0.04 0.06 0.03 0.05 0.07 0.08 0.05 0.04 0.09 0.17 0.23 0.22 0.26 0.35
0.00 0.00 0.00 0.00 0.01 0.00 0.01 0.02 0.04 0.04 0.07 0.06 0.07 0.09 0.10 0.11 0.15 0.16 0.21 0.27 0.26 0.26
0.00 0.00 0.00 0.00 0.01 0.00 0.01 0.01 0.03 0.05 0.06 0.05 0.04 0.03 0.05 0.08 0.08 0.05 0.05 0.16 0.21 0.27
0.00 0.00 0.00 0.00 0.00 0.00 0.00 0.01 0.02 0.03 0.04 0.04 0.03 0.02 0.02 0.04 0.02 0.00 0.00 0.07 0.23 0.56
0.00 0.00 0.00 0.00 0.00 0.00 0.02 0.01 0.01 0.03 0.05 0.06 0.01 0.00 0.00 0.01 0.01 0.00 0.00 0.00 0.07 0.21
0.00 0.00 0.00 0.00 0.01 0.03 0.04 0.04 0.05 0.06 0.08 0.04 0.00 0.00 0.00 0.00 0.01 0.02 0.01 0.00 0.00 0.01
0.00 0.00 0.00 0.00 0.01 0.02 0.06 0.09 0.14 0.07 0.03 0.01 0.00 0.00 0.00 0.00 0.02 0.07 0.04 0.02 0.00 0.00
0.00 0.00 0.00 0.01 0.03 0.06 0.06 0.04 0.05 0.06 0.06 0.03 0.00 0.00 0.00 0.00 0.01 0.11 0.12 0.04 0.01 0.00
0.00 0.00 0.00 0.02 0.04 0.09 0.06 0.04 0.07 0.11 0.08 0.02 0.00 0.00 0.00 0.00 0.00 0.01 0.08 0.13 0.03 0.00
0.00 0.00 0.01 0.02 0.03 0.05 0.05 0.16 0.13 0.08 0.04 0.01 0.00 0.00 0.00 0.00 0.00 0.00 0.00 0.04 0.02 0.00

GFSNIL_prec_precacc6_279.txt.gz
Total_Precipitation_Accumulation
0.01 0.03 0.07 0.23 0.23 0.12 0.05 0.16 0.10 0.10 0.01 0.00 0.00 0.00 0.03 0.05 0.03 0.12 0.06 0.13 0.14 0.26
0.02 0.03 0.06 0.12 0.18 0.16 0.18 0.04 0.32 0.24 0.10 0.00 0.00 0.01 0.05 0.06 0.02 0.04 0.10 0.16 0.37 0.29
0.01 0.03 0.13 0.20 0.10 0.14 0.11 0.04 0.31 0.04 0.01 0.00 0.00 0.03 0.05 0.02 0.11 0.17 0.13 0.05 0.07 0.15
0.00 0.01 0.05 0.06 0.05 0.05 0.06 0.05 0.04 0.02 0.01 0.01 0.01 0.04 0.05 0.01 0.20 0.19 0.10 0.12 0.07 0.40
0.00 0.00 0.01 0.01 0.00 0.00 0.01 0.01 0.03 0.03 0.01 0.01 0.02 0.04 0.02 0.01 0.10 0.09 0.10 0.19 0.25 0.24
0.00 0.00 0.00 0.00 0.01 0.00 0.00 0.01 0.01 0.01 0.03 0.03 0.03 0.03 0.03 0.06 0.12 0.11 0.13 0.08 0.10 0.18
0.00 0.00 0.00 0.00 0.01 0.00 0.00 0.01 0.02 0.03 0.03 0.02 0.01 0.02 0.03 0.06 0.06 0.04 0.02 0.04 0.12 0.17
0.00 0.00 0.00 0.00 0.00 0.00 0.00 0.01 0.01 0.01 0.02 0.03 0.02 0.01 0.02 0.02 0.01 0.00 0.00 0.02 0.08 0.10
0.00 0.00 0.00 0.00 0.00 0.00 0.00 0.00 0.00 0.01 0.03 0.05 0.01 0.00 0.00 0.01 0.01 0.00 0.00 0.00 0.00 0.02
0.00 0.00 0.00 0.00 0.00 0.00 0.00 0.00 0.01 0.01 0.02 0.02 0.00 0.00 0.00 0.00 0.00 0.00 0.00 0.00 0.00 0.00
0.00 0.00 0.00 0.00 0.00 0.00 0.04 0.06 0.09 0.04 0.03 0.01 0.00 0.00 0.00 0.00 0.00 0.03 0.02 0.01 0.00 0.00
0.00 0.00 0.00 0.00 0.00 0.01 0.03 0.03 0.05 0.06 0.06 0.04 0.00 0.00 0.00 0.00 0.00 0.05 0.06 0.03 0.00 0.00
0.00 0.00 0.00 0.00 0.00 0.02 0.05 0.07 0.16 0.18 0.17 0.08 0.00 0.02 0.02 0.00 0.00 0.00 0.04 0.05 0.01 0.00
0.00 0.00 0.01 0.02 0.02 0.13 0.28 0.37 0.42 0.42 0.44 0.30 0.13 0.09 0.02 0.00 0.00 0.00 0.00 0.02 0.01 0.00

GFSNIL_prec_precacc6_285.txt.gz
Total_Precipitation_Accumulation
0.06 0.07 0.04 0.08 0.15 0.00 0.01 0.05 0.06 0.05 0.08 0.15 0.28 0.25 0.12 0.05 0.03 0.04 0.02 0.02 0.01 0.00
0.03 0.05 0.10 0.08 0.10 0.01 0.02 0.05 0.21 0.31 0.20 0.37 0.34 0.24 0.18 0.07 0.04 0.05 0.04 0.01 0.06 0.04
0.01 0.01 0.07 0.07 0.07 0.04 0.07 0.05 0.22 0.71 0.21 0.16 0.28 0.15 0.17 0.04 0.03 0.01 0.04 0.02 0.03 0.06
0.01 0.01 0.01 0.01 0.00 0.03 0.01 0.01 0.33 0.48 0.22 0.06 0.03 0.01 0.01 0.01 0.01 0.00 0.00 0.04 0.02 0.00
0.00 0.00 0.01 0.00 0.00 0.00 0.00 0.00 0.02 0.04 0.02 0.01 0.01 0.00 0.00 0.00 0.01 0.01 0.00 0.05 0.02 0.05
0.00 0.00 0.00 0.00 0.00 0.00 0.00 0.00 0.00 0.00 0.00 0.00 0.00 0.00 0.00 0.00 0.00 0.00 0.00 0.00 0.03 0.12
0.00 0.00 0.00 0.00 0.00 0.00 0.00 0.00 0.00 0.00 0.00 0.00 0.00 0.00 0.00 0.00 0.00 0.00 0.00 0.00 0.01 0.01
0.00 0.00 0.00 0.00 0.00 0.00 0.00 0.00 0.00 0.00 0.00 0.00 0.00 0.00 0.00 0.00 0.00 0.00 0.00 0.00 0.00 0.00
0.00 0.00 0.00 0.00 0.00 0.00 0.00 0.00 0.00 0.00 0.00 0.00 0.00 0.00 0.00 0.00 0.00 0.00 0.00 0.00 0.00 0.00
0.00 0.00 0.00 0.00 0.00 0.00 0.00 0.00 0.00 0.00 0.00 0.00 0.00 0.00 0.00 0.00 0.00 0.00 0.00 0.00 0.00 0.00
0.00 0.00 0.00 0.00 0.00 0.00 0.00 0.00 0.00 0.00 0.00 0.00 0.00 0.00 0.00 0.00 0.00 0.02 0.02 0.02 0.01 0.00
0.00 0.00 0.00 0.00 0.00 0.00 0.00 0.00 0.01 0.03 0.02 0.06 0.08 0.09 0.06 0.01 0.00 0.00 0.03 0.02 0.01 0.00
0.00 0.00 0.00 0.00 0.00 0.00 0.00 0.01 0.05 0.07 0.16 0.26 0.22 0.22 0.14 0.08 0.01 0.00 0.01 0.01 0.00 0.01
0.00 0.00 0.00 0.00 0.00 0.01 0.04 0.05 0.04 0.06 0.12 0.18 0.22 0.23 0.26 0.19 0.07 0.03 0.01 0.01 0.00 0.00

GFSNIL_prec_precacc6_291.txt.gz
Total_Precipitation_Accumulation
0.02 0.03 0.03 0.04 0.01 0.01 0.00 0.00 0.01 0.01 0.03 0.11 0.10 0.18 0.33 0.31 0.24 0.38 0.25 0.07 0.06 0.06
0.06 0.04 0.04 0.06 0.04 0.04 0.00 0.03 0.09 0.14 0.09 0.29 0.42 0.38 0.54 0.79 0.92 0.93 0.72 0.18 0.07 0.04
0.07 0.09 0.12 0.08 0.11 0.07 0.09 0.05 0.08 0.30 0.47 0.32 0.25 0.20 0.19 0.27 0.41 0.26 0.06 0.03 0.02 0.00
0.04 0.05 0.05 0.02 0.01 0.02 0.03 0.04 0.12 0.49 0.24 0.06 0.02 0.02 0.03 0.09 0.09 0.04 0.01 0.01 0.01 0.00
0.02 0.04 0.02 0.02 0.02 0.01 0.01 0.01 0.11 0.22 0.04 0.01 0.02 0.00 0.01 0.03 0.03 0.07 0.06 0.01 0.01 0.00
0.00 0.00 0.00 0.00 0.01 0.01 0.01 0.01 0.06 0.05 0.03 0.00 0.00 0.00 0.00 0.01 0.01 0.01 0.00 0.00 0.00 0.01
0.00 0.00 0.00 0.00 0.00 0.00 0.00 0.00 0.00 0.00 0.00 0.00 0.00 0.00 0.00 0.00 0.00 0.00 0.00 0.00 0.00 0.00
0.00 0.00 0.00 0.00 0.00 0.00 0.00 0.00 0.00 0.00 0.00 0.00 0.00 0.00 0.00 0.00 0.00 0.00 0.00 0.00 0.00 0.00
0.00 0.00 0.00 0.00 0.00 0.00 0.00 0.00 0.00 0.00 0.00 0.00 0.00 0.00 0.00 0.00 0.00 0.00 0.00 0.00 0.00 0.00
0.00 0.00 0.00 0.00 0.00 0.00 0.00 0.00 0.00 0.00 0.00 0.00 0.00 0.00 0.00 0.00 0.00 0.00 0.00 0.00 0.00 0.00
0.00 0.00 0.00 0.00 0.00 0.00 0.00 0.00 0.00 0.00 0.00 0.00 0.00 0.00 0.00 0.00 0.00 0.00 0.00 0.00 0.00 0.00
0.00 0.00 0.00 0.00 0.00 0.00 0.00 0.00 0.00 0.00 0.00 0.00 0.00 0.00 0.00 0.00 0.00 0.00 0.00 0.00 0.00 0.00
0.00 0.00 0.00 0.00 0.00 0.00 0.00 0.00 0.00 0.00 0.00 0.00 0.00 0.00 0.00 0.00 0.02 0.03 0.10 0.12 0.06 0.08
0.00 0.00 0.00 0.00 0.00 0.00 0.00 0.00 0.00 0.00 0.00 0.01 0.00 0.01 0.01 0.05 0.09 0.11 0.33 0.16 0.13 0.14